Location: Frankfurt+am+Main
(50.1100°N, 8.4815°E)
Time: 08:59:41
(UTC+01:00)

ISS - Pass Details

Date: 13 November 2017
Orbit: 401 x 407 km, 51.6° (Epoch: 25 November)

Event Time Altitude Azimuth Distance (km) Brightness Sun altitude
Exits shadow 06:35:36 14° 272° (W) 1,243 -2.0 -9.8°
Maximum altitude 06:37:58 32° 212° (SSW) 716 -2.7 -9.4°
Drops below altitude 10° 06:40:54 10° 147° (SSE) 1,450 -0.2 -9.0°
Sets 06:43:06 0° 137° (SE) 2,306 1.2 -8.7°
